Weather Roundup
Issued by NWS Springfield, MO

Home | Current Version | Previous Version | Text Only | Print | Product List | Glossary On
Versions: 1 2 3 4 5 6 7 8 9 10 11 12 13 14 15 16 17 18 19 20 21 22 23 24 25 26 27 28 29 30 31 32 33 34 35 36 37 38 39 40 41 42 43 44 45 46 47 48 49 50
000
NZUS99 KSGF 291607
HRRSGF

HOURLY WEATHER
NATIONAL WEATHER SERVICE SPRINGFIELD MO
1100 AM CDT FRI JUL 29 2016

......SGF CWA......

CITY           SKY/WX    TMP DP  RH WIND       PRES   REMARKS
SPRINGFIELD    PTSUNNY   81  71  71 W7        29.99R
JOPLIN         CLOUDY    77  71  82 N8        30.02R
WEST PLAINS    CLOUDY    83  69  62 VRB3      30.02S
ROLLA          PTSUNNY   79  70  74 CALM      29.99S
OSAGE BEACH    PTSUNNY   78  72  81 SE7       29.99F
BRANSON        PTSUNNY   82  75  78 SW6       30.02S

......SURROUNDING SGF CWA......

CITY           SKY/WX    TMP DP  RH WIND       PRES   REMARKS
CHANUTE        CLOUDY    77  69  76 N6        30.01F
PARSONS        CLOUDY    77  69  76 N6        30.03F
COFFEYVILLE    CLOUDY    76  69  79 NE7       30.00F
EMPORIA        MOSUNNY   78  67  68 CALM      30.03F
GROVE OK       CLOUDY    79  73  83 W5        30.02R
ROGERS AR      CLOUDY    80  74  81 W13       30.02S
SILOAM SPRINGS CLOUDY    79  66  65 W12G20    30.03S
HARRISON AR    MOSUNNY   84  72  67 W6        30.01S
NEAR YELLVILLE CLOUDY    82  73  74 SE3       29.96R

......KANSAS AND MISSOURI......

CITY           SKY/WX    TMP DP  RH WIND       PRES   REMARKS
KANSAS CTY INT PTSUNNY   79  64  60 CALM      30.04R
DOWNTOWN KC    MOSUNNY   82  63  52 N5        30.01S
COLUMBIA       MOSUNNY   80  69  69 NW5       30.00S
SEDALIA        CLOUDY    80  67  64 CALM      30.02R
ST JOSEPH      MOSUNNY   77  65  66 N9        30.03R
ST LOUIS       CLOUDY    83  66  56 W3        29.96F
SPIRIT OF STL  CLOUDY    81  70  69 NW5       29.96S
KIRKSVILLE     CLOUDY    77  64  64 VRB5      30.01S
WICHITA        PTSUNNY   76  68  76 NW12      30.04F
TOPEKA         MOSUNNY   79  66  64 NE7       30.03S
OLATHE         MOSUNNY   78  65  63 NE7       30.03R

......TENNESSEE......

CITY           SKY/WX    TMP DP  RH WIND       PRES   REMARKS
MEMPHIS        CLOUDY    82  73  74 SW8       29.99S
NASHVILLE      PTSUNNY   85  73  67 SW8       29.99S HX  91

......ARKANSAS.......

CITY           SKY/WX    TMP DP  RH WIND       PRES   REMARKS
FAYETTEVILLE   CLOUDY    81  76  84 W10       30.02R
FT SMITH       CLOUDY    86  72  62 W12       29.98R HX  92
LITTLE ROCK    CLOUDY    83  73  72 W8        29.98F

......OKLAHOMA.......

CITY           SKY/WX    TMP DP  RH WIND       PRES   REMARKS
TULSA          CLOUDY    77  67  71 W6        30.00S
PONCA CITY     CLOUDY    73  64  73 NW12G21   29.98R
MCALESTER      PTSUNNY   83  72  69 N10       30.04R
OKLAHOMA CITY  CLOUDY    72  69  90 S8        30.02F

......IOWA............

CITY           SKY/WX    TMP DP  RH WIND       PRES   REMARKS
DES MOINES     CLOUDY    70  63  78 N12       30.00F
QUAD CITIES    CLOUDY    77  68  73 W7        29.94S

......ILLINOIS........

CITY           SKY/WX    TMP DP  RH WIND       PRES   REMARKS
QUINCY         MOSUNNY   76  70  82 NW8       29.98R
CHICAGO        CLOUDY    79  70  74 NE8       29.94R




USA.gov is the U.S. government's official web portal to all federal, state and local government web resources and services.